Regional Weather Roundup
Issued by NWS

Home | Current Version | Previous Version | Graphics & Text | Print | Product List | Glossary On
Versions: 1 2 3 4 5 6 7 8 9 10 11 12 13 14 15 16 17 18 19 20 21 22 23 24 25 26 27 28 29 30 31 32 33 34 35 36 37 38 39 40 41 42 43 44 45 46 47 48 49 50
000
ASUS43 KBIS 261110
RWRND

NORTH DAKOTA REGIONAL WEATHER ROUNDUP
NATIONAL WEATHER SERVICE BISMARCK ND
600 AM CDT FRI AUG 26 2016

NOTE: "FAIR" INDICATES FEW OR NO CLOUDS BELOW 12,000 FEET WITH NO
SIGNIFICANT WEATHER AND/OR OBSTRUCTIONS TO VISIBILITY.


NDZ001>003-009>011-017-261200-
NORTHWEST NORTH DAKOTA

CITY           SKY/WX    TMP DP  RH WIND       PRES   REMARKS
WILLISTON      MOCLDY    51  42  71 CALM      30.07S
MINOT          FAIR      56  44  64 SW9       30.04F
MINOT AFB      FAIR      52  45  76 SW7       30.03S
$$

NDZ018>021-031>035-040>046-261200-
SOUTHWEST NORTH DAKOTA

CITY           SKY/WX    TMP DP  RH WIND       PRES   REMARKS
BISMARCK       FAIR      42  40  92 S3        30.12S
DICKINSON      FAIR      46  38  73 S9        30.10F
GARRISON         N/A     47  45  93 S3        30.08S
HETTINGER ARPT FAIR      46  39  76 CALM      30.15F
$$

NDZ004>008-012>016-024-026-027-054-261200-
NORTHEAST NORTH DAKOTA

CITY           SKY/WX    TMP DP  RH WIND       PRES   REMARKS
GRAND FORKS    FAIR      48  45  89 SW5       30.07R
GRND FRKS AFB  FAIR      51  47  89 W7        30.07R
DEVILS LAKE    FAIR      56  50  80 SW8       30.07F
$$

NDZ022-023-025-028>030-036>039-047>053-261200-
SOUTHEAST NORTH DAKOTA

CITY           SKY/WX    TMP DP  RH WIND       PRES   REMARKS
FARGO          FAIR      51  47  86 SW5       30.10S
JAMESTOWN      FAIR      51  47  86 SW3       30.10F
$$




USA.gov is the U.S. government's official web portal to all federal, state and local government web resources and services.